Tracking 35331 objects as of 16-Sep-2026
HD Live streaming from Space Station
objects crossing your sky now

COSMOS 885 DEB


COSMOS 885 DEB is no longer on orbit


NORAD ID: 9924
Int'l Code: 1976-124Q
Launch date: December 17, 1976
Source: Commonwealth of Independent States (former USSR) (CIS)
Launch site: PLESETSK MISSILE AND SPACE COMPLEX (PKMTR)
Decay date: 1977-12-14

Note: This is SATELLITE DEBRIS
Your satellite tracking list
Your tracking list is empty




NASA's NSSDC Master Catalog

Two Line Element Set (TLE):
1 09924U 76124  Q 77316.92912077  .00432060 +00000-0 +00000-0 0  9990
2 09924 065.8312 277.9931 0000000 082.0069 024.7671 15.62757986050608
Source of the keplerian elements: AFSPC